Location: Unspecified
(0.0000°N, 0.0000°E)
Time: 18:51:57
(UTC+00:00)

A-11 Canister half - Pass Details

Date: 22 November 2019
Orbit: 1515 x 1685 km, 47.2° (Epoch: 05 December)

Event Time Altitude Azimuth Distance (km) Brightness Sun altitude
Rises 03:51:59 0° 286° (WNW) 4,810 - -26.6°
Reaches altitude 10° 03:56:20 10° 270° (W) 3,794 - -25.6°
Exits shadow 04:00:58 19° 241° (WSW) 3,135 10.3 -24.6°
Maximum altitude 04:02:39 19° 228° (SW) 3,071 10.3 -24.2°
Drops below altitude 10° 04:08:53 10° 185° (S) 3,716 11.2 -22.7°
Sets 04:13:09 0° 168° (SSE) 4,679 12.0 -21.7°
